www.pogodaiklimat.ru

Погода и климат >> Архив погоды >> Индия >> Тамилнад >> Веллор


ПОГОДА в Веллоре

  • Прогноз погоды в Веллоре
  • Монитор погоды в Веллоре

АРХИВ ПОГОДЫ в Веллоре

Время (UTC), дата Ветер
(напр.,м/с)
 
Видим.   Явления Облачность Т
(С)
Тd
(С)
f
(%)
Тe
(С)
Тes
(С)
Комфортность P
(гПа)
Po
(гПа)
Тmin
(С)
Tmax
(С)
R
(мм)
R24
(мм)
S
(см)
03 16.09 З 1 10 км 8/0 2000 м
[Ac As Ci sp]
+26.0 +23.1 84 +35 +39 очень
душно
1008.8 984.7 +24.4 +33.2 3
06 16.09 З 2 10 км 8/1 600 м
[Cu Sc Ac As]
+30.2 +23.2 66 +40 +50 очень
душно
1007.3 983.6
09 16.09 З 2 10 км 8/4 600 м
[Cu Sc Ac trans Ci fib]
+31.4 +23.6 63 +42 +49 опасность
перегрева
1004.0 980.5
12 16.09 З 1 10 км 6/1 600 м
[Cu hum Ac trans Ci fib]
+31.0 +23.5 64 +42 +42 опасность
перегрева
1003.5 979.9 +32.0
03 17.09 З 2 10 км слаб. морось {дождь} 10/0 2000 м
[Ac As]
+24.4 +23.2 93 +33 +35 очень
душно
1007.6 983.4 +23.6 +32.0 18
06 17.09 СЗ 2 10 км {дождь, морось} 10/4 600 м
[Cu Sc Ac As Cs]
+28.8 +24.5 78 +41 +47 опасность
перегрева
1006.7 982.8 0.3
09 17.09 СЗ 1 10 км 10/5 600 м
[Cu Sc Ac As Ci fib]
+29.8 +23.7 70 +41 +45 опасность
перегрева
1004.2 980.5 0.3
12 17.09 З 1 10 км 8/3 600 м
[Cu Sc Ac trans Ci fib]
+29.6 +24.1 72 +41 +41 опасность
перегрева
1003.4 979.7 +30.7 0.3
03 18.09 ЮЗ 2 2000 м слаб. дождь {морось} 10/0 1500 м
[Ac As]
+25.4 +23.3 88 +34 +36 очень
душно
1008.3 984.2 +24.7 +30.7 4
06 18.09 З 1 4000 м слаб. морось {дождь} 10/0 2000 м
[Ac As]
+26.4 +24.4 89 +37 +44 очень
душно
1007.7 983.7 4
09 18.09 З 2 10 км {морось} 9/3 600 м
[Cu hum Ac trans Cs]
+30.2 +24.8 73 +43 +49 опасность
перегрева
1004.1 980.5 4
12 18.09 З 1 10 км {морось} 9/3 600 м
[Cu hum Ac trans Cs]
+30.6 +25.2 73 +44 +45 опасность
перегрева
1003.9 980.3 +31.7 4
03 19.09 штиль 0 4000 м 10/3 300 м
[Sc Ac As Cs]
+24.4 +23.2 93 +33 +36 очень
душно
1009.0 984.8 +23.6 +31.7 25
06 19.09 штиль 0 10 км 10/1 300 м
[Sc Ac As Cs]
+26.0 +24.3 90 +36 +48 очень
душно
1008.1 984.0
09 19.09 ЮЗ 2 10 км 9/1 600 м
[Cu hum Ac As Cs]
+29.8 +24.1 72 +42 +49 опасность
перегрева
1004.9 981.2
12 19.09 Ю 2 10 км 9/1 600 м
[Cu hum Ac As Ci fib]
+29.4 +23.9 72 +40 +41 очень
душно
1004.7 981.0 +30.5
03 20.09 штиль 0 10 км 10/1 600 м
[Cu Sc Ac As Cs]
+26.8 +22.7 78 +35 +39 очень
душно
1009.5 985.5 +25.3 +30.5
06 20.09 СЗ 1 10 км 9/3 600 м
[Cu Sc Ci sp]
+29.2 +22.4 67 +38 +52 опасность
солнечного
удара
1008.5 984.7
09 20.09 штиль 0 10 км 9/4 600 м
[Cu Sc Ci sp]
+31.4 +23.0 61 +42 +51 опасность
перегрева
1005.3 981.8
12 20.09 ЮВ 1 10 км 9/1 600 м
[Cu Sc Ci sp]
+30.4 +25.0 73 +44 +44 опасность
перегрева
1005.1 981.5 +31.8
03 21.09 З 2 4000 м мгла 3/1 600 м
[Cu Sc Ci fib]
+27.4 +24.2 83 +38 +44 очень
душно
1008.6 984.6 +24.9 +31.8
06 21.09 СЗ 1 10 км 6/3 600 м
[Cu Sc Ac trans Ci fib]
+30.8 +23.6 66 +42 +56 опасность
перегрева
1006.8 983.1
09 21.09 В 1 10 км 9/6 600 м
[Cu Sc Ac trans Ci fib]
+33.2 +25.0 62 +47 +51 опасность
перегрева
1003.8 980.4
12 21.09 В 1 10 км 9/0 2000 м
[Ac As Ci sp]
+28.8 +23.6 74 +39 +40 очень
душно
1004.9 981.1 +33.8
15 21.09 0 н/о
03 22.09 З 1 10 км 4/1 600 м
[Sc Ac trans Ci fib]
+25.8 +23.8 89 +35 +41 очень
душно
1009.1 985.0 +24.2 +33.8 10
09 22.09 СЗ 1 10 км 9/5 600 м
[Cu Sc Ci sp]
+32.0 +24.0 63 +44 +51 опасность
перегрева
1004.8 981.3
12 22.09 штиль 0 10 км слаб. морось {дождь} 10/0 2000 м
[Ac As]
+27.6 +24.4 83 +39 +39 очень
душно
1005.9 982.1 +32.7 4

 

Местоположение метеостанции Веллор (Тамилнад, Индия): широта 12.92 долгота 79.15 высота над уровнем моря 214 м.

В архиве по умолчанию представлена погода в Веллоре за последнюю неделю. Архивные данные за месяц целиком и за предыдущие месяцы, начиная с января 2011 года, Вы можете получить, выбрав интересующий диапазон дат из раскрывающегося списка и нажав кнопку "Ввод!".


*Определитесь, кто Вы:
робот инопланетянин человек

Внимание! Время в таблицах - всемирное. Для получения местного времени необходимо прибавить поправку, которая равна 5.5 ч.

Смотрите также архив погоды в соседних городах и на ближайших метеорологических станциях:

Погода в Терутани (Тамилнад, Индия) (48 км)
Погода в Тирупатчере (Тамилнад, Индия) (80 км)
Погода в Тирупати (Андхра-Прадеш, Индия) (96 км)
Погода в Маданапалле (Андхра-Прадеш, Индия) (98 км)
Погода в Ченнаи (Тамилнад, Индия) (112 км)
Погода в Ченнаи (Тамилнад, Индия) (115 км)
Погода в Чинтамани (Карнатака, Индия) (121 км)
Погода в Пондичерри (Пондичерри, Индия) (128 км)
Погода в Куддалоре (Тамилнад, Индия) (145 км)
Погода в Дхармапури (Тамилнад, Индия) (150 км)

Пояснения к столбцам:

Ветер - указаны скорость ветра в м/с - средняя за 10 мин, порывы в срок и между сроками (в фигурных скобках) и направление, откуда дует ветер: С - северный, СВ - северо-восточный, В - восточный, ЮВ - юго-восточный, Ю - южный, ЮЗ - юго-западный, З - западный, СЗ - северо-западный.
Видимость - горизонтальная дальность видимости в метрах или километрах. При видимости от 1 до 10 км при отсутствии осадков обычно наблюдается дымка, при ухудшении видимости до 1 км и менее - туман. В сухую погоду видимость может ухудшаться дымом, пылью или мглою.
Явления - указаны атмосферные явления, наблюдавшиеся в срок или в последний час перед сроком; фигурными скобками обозначены явления, наблюдавшиеся между сроками (за 1-3 часа до срока); квадратными скобками обозначены град или гололедные отложения с указанием их диаметра в мм.
Облачность - указаны через наклонную черту общая и нижняя облачность в баллах и высота нижней границы облаков в метрах; квадратными скобками обозначены формы облаков: Ci - перистые, Cs - перисто-слоистые, Cc - перисто-кучевые, Ac - высококучевые, As - высокослоистые, Sc - слоисто-кучевые, Ns - слоисто-дождевые, Cu - кучевые, Cb - кучево-дождевые. Подробнее классификацию облаков см. в Атласе облаков (PDF).
T - Температура воздуха - температура, измеренная на высоте 2 м над землей.
Td - Температура точки росы - температура, при понижении до которой содержащийся в воздухе водяной пар достигнет насыщения.
f - Относительная влажность воздуха - влажноcть воздуха, измеренная на высоте 2 м над землей.
Te - Эффективная температура - температура, которую ощущает одетый по сезону человек в тени. Характеристика душности погоды. При расчете учитывается влияние влажности воздуха и скорости ветра на теплоощущения человека.
Tes - Эффективная температура на солнце - температура, которую ощущает человек, с поправкой на солнечный нагрев. Характеристика знойности погоды. Зависит от высоты солнца над горизонтом, облачности и скорости ветра. Ночью, в пасмурную погоду, а также при ветре 12 м/с и более поправка равна нулю.
P - Атмосферное давление - приведенное к уровню моря атмосферное давление.
Po - Атмосферное давление - измеренное на уровне метеостанции атмосферное давление.
Tmin - Минимальная температура - минимум температуры воздуха на высоте 2 м над землей.
Tmax - Максимальная температура - максимум температуры воздуха на высоте 2 м над землей.
R - Количество осадков - Количество выпавших осадков за период времени, мм. При наведении курсора мыши на число - период времени, за который выпало указанное количество осадков.
R24 - Количество осадков - Количество выпавших осадков за 24 часа, мм.
S - Снежный покров - Высота снежного покрова, см. При наведении курсора мыши на число - состояние снежного покрова и степень покрытия местности в баллах.